Columbus, MS

3:15 PM CST on February 20, 2017 (GMT -0600)
Columbus Air Force Base

Weather History for KCBM - February, 2014

Change the Weather History Date:

Friday, February 14, 2014

  Actual Average Record
Temperature  
Mean Temperature 41 °F -  
Max Temperature 56 °F 57 °F 71 °F (2003)
Min Temperature 26 °F 38 °F 21 °F (2008)
Degree Days  
Heating Degree Days 24    
Moisture  
Dew Point 40 °F    
Average Humidity 81    
Maximum Humidity 100    
Minimum Humidity 51    
Precipitation  
Precipitation 0.07 in - - ()
Sea Level Pressure  
Sea Level Pressure 29.82 in    
Wind  
Wind Speed 7 mph (WNW)    
Max Wind Speed 25 mph    
Max Gust Speed 36 mph    
Visibility 8 miles    
Events Rain , Thunderstorm    
Averages and records for this station are not official NWS values.
T = Trace of Precipitation, MM = Missing Value Source: NWS Daily Summary

Daily Weather History Graph

Daily Weather History Graph

Search for Another Location

Airport or City:

Trip Planner

Search our weather history database for the weather conditions in past years. The results will help you decide how hot, cold, wet, or windy it might be!

Date:

Astronomy

Feb. 14, 2014 Rise Set
Actual Time 6:39 AM CST 5:37 PM CST
Civil Twilight 6:13 AM CST 6:02 PM CST
Nautical Twilight 5:44 AM CST 6:32 PM CST
Astronomical Twilight 5:15 AM CST 7:01 PM CST
Moon 5:38 PM CST (2/14) 6:07 AM CST (2/14)
Length of Visible Light 11h 49m
Length of Day
10h 58m
Full, 100% of the Moon is Illuminated
Feb 14
Full
Feb 14
Full
Feb 22
Last Quarter
Mar 1
New
Mar 8
First Quarter

Hourly Weather History & Observations

Time (CST) Temp. Windchill Dew Point Humidity Pressure Visibility Wind Dir Wind Speed Gust Speed Precip Events Conditions
12:58 AM 30.4 °F - 26.4 °F 85% 29.96 in 10.0 mi SE 2.3 mph - N/A   Clear
1:58 AM 29.8 °F 26.3 °F 25.7 °F 85% 29.96 in 10.0 mi SSE 3.5 mph - N/A   Clear
2:58 AM 28.4 °F 22.2 °F 26.1 °F 91% 29.94 in 10.0 mi SE 5.8 mph - N/A   Clear
3:58 AM 27.9 °F 22.6 °F 25.5 °F 91% 29.92 in 10.0 mi SE 4.6 mph - N/A   Clear
4:58 AM 26.8 °F 20.2 °F 24.4 °F 91% 29.93 in 10.0 mi SE 5.8 mph - N/A   Clear
5:58 AM 27.1 °F - 25.2 °F 92% 29.94 in 10.0 mi Calm Calm - N/A   Clear
6:58 AM 28.4 °F 23.3 °F 26.6 °F 93% 29.94 in 10.0 mi SSE 4.6 mph - N/A   Clear
7:58 AM 32.9 °F 28.5 °F 31.1 °F 93% 29.93 in 10.0 mi SSE 4.6 mph - N/A   Clear
8:58 AM 42.4 °F 37.5 °F 34.7 °F 74% 29.91 in 10.0 mi South 8.1 mph - N/A   Clear
9:58 AM 46.0 °F 41.9 °F 35.4 °F 66% 29.92 in 10.0 mi SSW 8.1 mph - N/A   Partly Cloudy
10:58 AM 50.4 °F - 37.0 °F 60% 29.92 in 10.0 mi WSW 8.1 mph - N/A   Partly Cloudy
11:58 AM 54.0 °F - 38.3 °F 55% 29.86 in 10.0 mi South 10.4 mph - N/A   Mostly Cloudy
12:58 PM 55.0 °F - 37.8 °F 52% 29.84 in 10.0 mi SSW 9.2 mph - N/A   Clear
1:58 PM 56.3 °F - 38.7 °F 52% 29.81 in 10.0 mi SSW 8.1 mph - N/A   Scattered Clouds
2:58 PM 55.8 °F - 37.6 °F 51% 29.77 in 10.0 mi SSW 10.4 mph - N/A   Scattered Clouds
3:58 PM 55.6 °F - 38.5 °F 53% 29.73 in 10.0 mi South 10.4 mph - N/A   Clear
4:23 PM 55.4 °F - 39.2 °F 54% 29.73 in 10.0 mi SW 6.9 mph - N/A   Mostly Cloudy
4:33 PM 55.4 °F - 41.0 °F 58% 29.75 in 4.0 mi SW 6.9 mph - N/A Rain Light Rain
4:38 PM 55.4 °F - 41.0 °F 58% 29.75 in 4.0 mi SSW 5.8 mph - N/A Rain Light Rain
4:47 PM 53.6 °F - 42.8 °F 67% 29.74 in 2.0 mi SSW 5.8 mph - N/A Rain Light Rain
4:58 PM 52.3 °F - 44.2 °F 74% 29.75 in 2.0 mi Variable 2.3 mph - 0.01 in Rain Rain
5:23 PM 50.0 °F - 44.6 °F 82% 29.72 in 2.0 mi SSE 3.5 mph - N/A Rain Rain
5:26 PM 50.0 °F - 44.6 °F 82% 29.72 in 2.0 mi SSE 3.5 mph - N/A Rain , Thunderstorm Light Thunderstorms and Rain
5:33 PM 50.0 °F - 46.4 °F 87% 29.73 in 2.0 mi East 2.3 mph - N/A Rain , Thunderstorm Thunderstorms and Rain
5:44 PM 50.0 °F - 46.4 °F 87% 29.75 in 4.0 mi NNW 8.1 mph - N/A Rain Rain
5:49 PM 50.0 °F - 48.2 °F 94% 29.76 in 2.5 mi West 4.6 mph - N/A Rain Heavy Rain
6:00 PM 50.0 °F - 48.2 °F 94% 29.78 in 4.0 mi NW 8.1 mph - N/A Rain Rain
6:05 PM 50.0 °F - 48.2 °F 94% 29.77 in 4.0 mi NNW 5.8 mph - N/A Rain Light Rain
6:10 PM 50.0 °F - 48.2 °F 94% 29.76 in 5.0 mi NW 3.5 mph - N/A Rain Light Rain
6:15 PM 50.0 °F - 48.2 °F 94% 29.75 in 8.0 mi Calm Calm - N/A Rain Light Rain
6:35 PM 48.2 °F - 48.2 °F 100% 29.76 in 8.0 mi Variable 2.3 mph - N/A Rain Light Rain
6:40 PM 48.2 °F - 48.2 °F 100% 29.76 in 8.0 mi NW 3.5 mph - N/A Rain Light Rain
6:47 PM 48.2 °F - 48.2 °F 100% 29.76 in 9.0 mi NNW 8.1 mph 18.4 mph N/A   Overcast
6:52 PM 50.0 °F - 48.2 °F 94% 29.75 in 10.0 mi North 5.8 mph 18.4 mph N/A   Mostly Cloudy
6:57 PM 50.0 °F - 48.2 °F 94% 29.75 in 10.0 mi North 6.9 mph - N/A   Mostly Cloudy
6:58 PM 50.0 °F - 48.2 °F 94% 29.76 in 10.0 mi North 5.8 mph - 0.06 in   Mostly Cloudy
7:13 PM 50.0 °F - 48.2 °F 94% 29.76 in 10.0 mi NW 12.7 mph 17.3 mph N/A   Mostly Cloudy
7:18 PM 50.0 °F - 48.2 °F 94% 29.76 in 10.0 mi NW 12.7 mph 20.7 mph N/A   Mostly Cloudy
7:23 PM 50.0 °F - 48.2 °F 94% 29.77 in 10.0 mi NW 12.7 mph 23.0 mph N/A   Mostly Cloudy
7:28 PM 50.0 °F - 48.2 °F 94% 29.77 in 10.0 mi NW 18.4 mph 25.3 mph N/A   Mostly Cloudy
7:33 PM 50.0 °F - 46.4 °F 87% 29.78 in 10.0 mi NW 13.8 mph 25.3 mph N/A   Overcast
7:38 PM 50.0 °F - 46.4 °F 87% 29.78 in 10.0 mi NNW 13.8 mph 25.3 mph N/A   Overcast
7:48 PM 50.0 °F - 46.4 °F 87% 29.79 in 10.0 mi NW 18.4 mph 31.1 mph N/A   Mostly Cloudy
7:53 PM 50.0 °F - 44.6 °F 82% 29.80 in 10.0 mi NNW 16.1 mph 31.1 mph N/A   Mostly Cloudy
7:58 PM 49.3 °F - 45.3 °F 86% 29.81 in 10.0 mi NNW 25.3 mph 35.7 mph N/A   Mostly Cloudy
8:03 PM 48.2 °F - 41.0 °F 76% 29.81 in 10.0 mi NNW 25.3 mph 35.7 mph N/A   Mostly Cloudy
8:08 PM 48.2 °F - 41.0 °F 76% 29.81 in 10.0 mi NNW 18.4 mph 32.2 mph N/A   Scattered Clouds
8:58 PM 45.9 °F 39.7 °F 39.6 °F 79% 29.87 in 10.0 mi NNW 13.8 mph 24.2 mph N/A   Partly Cloudy
9:58 PM 45.0 °F 37.9 °F 37.2 °F 74% 29.89 in 10.0 mi NNW 16.1 mph 26.5 mph N/A   Clear
10:58 PM 43.7 °F 36.9 °F 37.4 °F 78% 29.92 in 10.0 mi North 13.8 mph 23.0 mph N/A   Mostly Cloudy
11:03 PM 44.6 °F 37.8 °F 37.4 °F 76% 29.91 in 10.0 mi North 15.0 mph - N/A   Mostly Cloudy
11:08 PM 42.8 °F 34.5 °F 35.6 °F 76% 29.91 in 10.0 mi North 18.4 mph - N/A   Mostly Cloudy
11:18 PM 42.8 °F 35.1 °F 33.8 °F 70% 29.92 in 10.0 mi NNW 16.1 mph 31.1 mph N/A   Mostly Cloudy
11:23 PM 42.8 °F 34.3 °F 35.6 °F 76% 29.92 in 10.0 mi North 19.6 mph 28.8 mph N/A   Scattered Clouds
11:38 PM 42.8 °F 34.0 °F 32.0 °F 66% 29.93 in 10.0 mi North 20.7 mph 32.2 mph N/A   Mostly Cloudy
11:58 PM 41.4 °F 33.3 °F 33.3 °F 73% 29.96 in 10.0 mi North 16.1 mph 21.9 mph N/A   Overcast